USA 283

Last updated on Wed Nov 05 2025 00:02:49 GMT+0000 (Coordinated Universal Time)

1 43339U 18036A 25307.42082985 .00000000 00000+0 00000+0 0 9993 2 43339 0.0199 256.8569 0000583 11.8107 59.8533 1.00270807 23023
UTC large
Height (km)
Speed (km/s)
/
Latitude / Longitude
Inclination (degrees)
Orbital Period (minutes)
Azimuth
Elevation
Range (km)
Doppler Factor

Next 0 passes for location: London (51.5072 / 0.1276)

Sorry there are no passes over London.